Find Starlink 36898

NORAD ID: 68002 Int'l Des: 2026-039 Owner: SPXS Country: US Constellation: starlink operational
LEOCIRCULAR

Live Position

Loading 3D Globe...

About Starlink 36898

Description loading...

Upcoming Passes

Passes for default location (London). Set your location on the main map for personalized predictions.

Altitude History

Loading altitude history...

Two-Line Element Set

1 68002U 26039S 26105.52638419 -.00001801 00000-0 -55930-4 0 9996
2 68002 43.0011 201.1891 0002107 263.3806 96.6806 15.27570097 7338
Epoch: Apr 15, 2026 • Age: 20 hours

Current Status

Altitude 482.9 km
Velocity 7.63 km/s
Sub-Earth Point -0.39°S, 48.73°E
Launch Date Feb 27, 2026
Age 0.1 years
Type internet

Technical Details

Classification Payload
Mass 575.00 kg
Dry Mass 530.00 kg
Total Mass 575.00 kg
Length 0.30 m
Diameter 4.10 m
Span 29.00 m
Shape Box + pan
Manufacturer SPXS
Bus Type Starlink V2MO
Phase Status In Orbit
Owner/State SPXS/US

Most Searched